Location: Unspecified
(60.3083°N, 0.0000°E)
Time: 03:10:44
(UTC+00:00)

CUTE 1.7 + AOD 2 - Visible Passes

Search period start: 04 April 2026 00:00
Search period end: 14 April 2026 00:00
Orbit: 535 x 546 km, 97.8° (Epoch: 29 March)

Date Brightness Start Highest point End Pass type
(mag) Time Alt. Az. Time Alt. Az. Time Alt. Az.
4 Apr ? 03:19:33 10° NE 03:21:53 15° E 03:24:12 10° ESE visible
5 Apr ? 03:12:28 10° NE 03:14:24 13° E 03:16:19 10° ESE visible
6 Apr ? 03:05:32 10° ENE 03:06:54 11° E 03:08:15 10° ESE visible
9 Apr ? 04:16:06 10° NNE 04:19:50 40° E 04:23:33 10° S visible
10 Apr ? 04:08:40 10° NNE 04:12:19 35° E 04:15:57 10° SSE visible
11 Apr ? 04:01:15 10° NNE 04:04:47 30° E 04:08:17 10° SSE visible
12 Apr ? 03:53:50 10° NE 03:57:13 27° E 04:00:35 10° SSE visible
13 Apr ? 03:46:25 10° NE 03:49:38 23° E 03:52:49 10° SE visible
